Regional Weather Roundup
Issued by NWS

Home | Current Version | Previous Version | Text Only | Print | Product List | Glossary On
Versions: 1 2 3 4 5 6 7 8 9 10 11 12 13 14 15 16 17 18 19 20 21 22 23 24 25 26 27 28 29 30 31 32 33 34 35 36 37 38 39 40 41 42 43 44 45 46 47 48 49 50
000
ASUS44 KFWD 170415
RWRTX
NORTH TEXAS HOURLY WEATHER ROUNDUP
NATIONAL WEATHER SERVICE FORT WORTH TX
1100 PM CDT WED APR 16 2014

NOTE: "FAIR" INDICATES FEW OR NO CLOUDS BELOW 12,000 FEET WITH NO
SIGNIFICANT WEATHER AND/OR OBSTRUCTIONS TO VISIBILITY.

TXZ118-119-170500-
DALLAS/FORT WORTH METROPLEX

CITY           SKY/WX    TMP DP  RH WIND       PRES   REMARKS
DFW AIRPORT    CLEAR     57  41  55 SE14      30.00R
DALLAS LOVE    CLEAR     58  40  51 SE15      30.02R
FTW MEACHAM    CLEAR     58  45  62 SE13      29.99R
DAL-EXECUTIVE  FAIR      54  42  64 SE8       30.01R
FTW-ALLIANCE   CLEAR     56  42  59 SE12      29.99R
FTW-NAS-JRB    CLEAR     62  42  47 E8        30.04R
FTW-SPINKS     CLEAR     55  45  68 SE7       30.02R
ARLINGTON      CLEAR     56  43  61 E9        30.01R
GRAND PRAIRIE  CLEAR     55  41  58 SE6       30.04R
ADDISON        CLEAR     58  39  49 SE13G20   30.03R
MESQUITE       CLEAR     54  39  57 SE8       30.03R
LANCASTER      CLEAR     53  40  63 SE6       30.03R
$$

TXZ091>094-102>105-117-120-121-131>134-170500-
NORTH CENTRAL TEXAS

CITY           SKY/WX    TMP DP  RH WIND       PRES   REMARKS
SHRMAN/DENISON CLEAR     55  37  51 E8        30.04R
GAINESVILLE    CLEAR     53  42  66 E10       30.03R
BOWIE          CLEAR     56  44  64 E7        29.98R
BRIDGEPORT     CLEAR     58  43  57 SE8       29.99R
DECATUR        CLEAR     55  43  63 SE13      29.98S
DENTON         CLEAR     57  42  57 SE14      30.00R
MCKINNEY       CLEAR     54  41  61 SE7       30.03R
GREENVILLE     CLEAR     50  37  62 E5        30.04S
ROCKWALL       CLEAR     53  40  61 E7        30.02R
TERRELL        CLEAR     53  38  56 E7        30.04R
WAXAHACHIE     CLEAR     51  42  71 E5        30.03R
CLEBURNE       CLEAR     57  46  67 SE12      30.02R
GRANBURY       CLEAR     60  46  60 SE10      29.99R
$$

TXZ083>090-098>101-113>116-127>130-139>142-154-155-170500-
WESTERN NORTH TEXAS

CITY           SKY/WX    TMP DP  RH WIND       PRES   REMARKS
WICHITA FALLS  CLEAR     56  40  55 E14       29.95R
WF-KICKAPOO    CLEAR     59  40  49 E9        29.96R
VERNON         PTCLDY    62  35  36 SE16      29.91R
ABILENE        CLEAR     63  35  35 SE18G28   29.89R
ABILENE-DYESS  CLEAR     63  34  34 SE17G24   29.87R
BRECKENRIDGE   CLEAR     63  39  41 SE12      29.91S
GRAHAM         CLEAR     60  42  51 SE12G21   29.92R
MINERAL WELLS  CLEAR     58  44  60 SE13      29.95R
STEPHENVILLE   CLEAR     58  45  62 SE8       29.98R
COMANCHE       CLEAR     60  43  55 SE13      29.94R
BROWNWOOD      CLOUDY    59  41  51 SE10      29.93R
COLEMAN        CLEAR     60  37  42 S9        29.92R
BRADY          CLEAR     57  37  47 SE6       29.92S
$$

TXZ143>147-156>162-174-175-170500-
CENTRAL TEXAS

CITY           SKY/WX    TMP DP  RH WIND       PRES   REMARKS
WACO           CLEAR     58  46  64 SE13      29.99R
WACO-MCGREGOR  CLEAR     55  43  62 S12       30.01R
HILLSBORO      CLEAR     56  45  64 E10       30.01R
CORSICANA      CLEAR     54  42  64 SE8       30.04R
MEXIA          CLEAR     54  42  64 SE7       30.02R
HEARNE         CLOUDY    58  49  70 SE7       30.03R
CAMERON        CLOUDY    59  49  68 SE8       30.01R
TEMPLE         PTCLDY    55  45  67 SE10      30.02R
KILLEEN        CLEAR     57  46  67 SE16      29.98R
KILLEEN-SKYLRK PTCLDY    59  45  58 SE12G18   29.98R
FORT HOOD      PTCLDY    60  47  61 SE10G20   29.98R
GATESVILLE     CLEAR     59  46  63 SE10      29.99R
HAMILTON       CLEAR     58  46  63 SE13      29.97R
LAMPASAS       PTCLDY    58  48  69 SE9       29.96R
$$

TXZ095>097-106>112-122>126-135>138-148>153-164>167-170500-
EAST TEXAS

CITY           SKY/WX    TMP DP  RH WIND       PRES   REMARKS
PARIS          CLEAR     48  36  61 SE10      30.07S
SULPHUR SPRNGS CLEAR     51  37  58 SE6       30.08S
CLARKSVILLE    CLEAR     51  35  54 CALM      30.08S
MOUNT PLEASANT CLEAR     51  36  56 E3        30.10R
GILMER         CLEAR     48  39  71 CALM      30.09R
MINEOLA        CLEAR     46  39  76 CALM      30.07R
TYLER          CLEAR     53  38  56 SE7       30.05R
LONGVIEW       CLEAR     48  40  73 E5        30.06S
MARSHALL       CLEAR     46  41  84 CALM      30.10S
ATHENS         CLEAR     48  39  71 CALM      30.04R
PALESTINE      CLEAR     57  41  54 SE8       30.05S
JACKSONVILLE   CLEAR     53  40  62 SE8       30.07R
HENDERSON      CLEAR     50  37  62 SE3       30.07S
NACOGDOCHES    CLEAR     52  43  71 SE5       30.07S
LUFKIN         PTCLDY    53  45  74 SE6       30.07R
$$

SUPPLEMENTAL OBSERVATIONS (CENTRAL)

CITY           SKY/WX    TMP DP  RH WIND       PRES   REMARKS
LAKE TEXOMA      N/A     52  37  58 E3          N/A
CADDO GRASSLND   N/A     52  37  58 SE5         N/A
ATHENS           N/A     54  39  58 E3          N/A
PALESTINE        N/A     54  39  58 SE2         N/A
LAKE LIMESTONE   N/A     55  45  67 SE5         N/A
MCGREGOR         N/A     57  46  67 SE12        N/A
TEMPLE           N/A     55  46  71 SE7         N/A
$$

SUPPLEMENTAL OBSERVATIONS (WEST)

CITY           SKY/WX    TMP DP  RH WIND       PRES   REMARKS
MILLERS CREEK    N/A     61  36  39 SE12        N/A
POSSUM KINGDOM   N/A     59  41  51 SE10        N/A
LBJ GRASSLAND    N/A     55  41  58 SE10        N/A
GRANBURY         N/A     61  46  59 SE12        N/A
COMANCHE         N/A     59  45  58 SE13        N/A
HAMBY            N/A     63  34  34 SE12        N/A
$$

SUPPLEMENTAL OBSERVATIONS (EAST)

CITY           SKY/WX    TMP DP  RH WIND       PRES   REMARKS
TEXARKANA        N/A     41  37  87 CALM        N/A
LINDEN           N/A     45  39  81 CALM        N/A
CADDO LAKE       N/A     43  39  87 CALM        N/A
LUFKIN           N/A     54  45  71 MISG        N/A
N SABINE NF      N/A     46  43  87 MISG        N/A
$$

SUPPLEMENTAL OBSERVATIONS ARE A COLLECTION OF AUTOMATED INSTRUMENTS
THAT ARE MAINTAINED BY A VARIETY OF FEDERAL AND STATE AGENCIES.
CERTAIN ELEMENTS...SUCH AS HUMIDITY VALUES AND SUSTAINED WIND
SPEEDS...MAY BE APPROXIMATED.




USA.gov is the U.S. government's official web portal to all federal, state and local government web resources and services.